一网星座-0560星 (ONEWEB-0560)

导读

ONEWEB-0560是英国OneWeb公司低轨卫星互联网星座的组成卫星,于2023年1月10日发射。作为OneWeb一期卫星,它重约147.5公斤,运行在1200公里低轨轨道,配备Ku/Ka波段天线,单星通信能力约7.5Gbps,可提供全球宽带互联网接入服务,为偏远地区网络覆盖、企业联网等场景服务,助力OneWeb实现全球卫星互联网覆盖目标,设计使用寿命约5年,采用霍尔效应推进器保障轨道维持。

基本信息
目录编号:
55145
目录名称:
ONEWEB-0560
国际标识:
2023-004F
轨道中心:
EARTH
卫星名称:
一网星座-0560星
卫星全名:
一网星座-0560星 (ONEWEB-0560)
卫星状态:
在轨 (已飞行1341 天)
发射日期:
2023-01-10 UTC
国别 :
英国 (GB)
星等 :
--
该卫星已列入 空间交会检测服务 Space Conjunction Data Service (SCDS) ,当前飞行风险评估等级: 无高风险
轨道信息
数据来源 国际轨道数据
星历时间: 2026-09-11T23:35:26+0800
14小时前
查看轨道信息
半长轴: 7567.879km
偏心率: 0.0001929
轨道倾角: 87.918°
近地点辐角 89.307°
升交点赤经 318.275°
平近点角 270.828°
近地点: 1188.282km
远地点: 1191.202km
周期: 109.200分钟
每日圈数: 13.186863
详细信息
平衡模式:
三轴稳定
覆盖范围:
全球
运营商:
一网卫星公司
运营商所在国:
英国
制造商(研发单位):
一网卫星公司
制造商所在国:
英国
使用方式:
暂无
卫星简介
OneWeb卫星网络由648颗重约125公斤的微型卫星组成,运行在1200公里的轨道上。 每颗卫星都能够提供至少每秒8千兆位的吞吐量,以使用其高吞吐量的Ku频段有效载荷为家庭和移动平台提供互联网接入。该卫星仍在工作。
2D轨道图
3D轨道图
轨道高度分析图
轨道倾角分析图
轨道综合分析图
查看轨道综合分析图
与全量物体交会距离演化趋势
与全量物体交会风险概率演化趋势